#�ϑ�����,���ϕ���,���ϕ���,�ő啗��,�ő啗����������,�ő�u�ԕ���,�ő�u�ԕ�����������
#(�N����),(m/s)   ,(16����),(m/s)   ,(16����)        ,(m/s)       ,(16����)            
2015/6/28 0:01,1.4,16,1.4,11,3.8,5
2015/6/28 0:02,1.6,1,1.6,1,4.1,16
2015/6/28 0:03,1.7,16,1.7,1,5.1,16
2015/6/28 0:04,1.8,16,1.8,16,3.2,16
2015/6/28 0:05,2.1,16,2.1,16,5.6,15
2015/6/28 0:06,2.4,16,2.4,16,6.4,12
2015/6/28 0:07,2.7,16,2.7,16,6.4,11
2015/6/28 0:08,2.8,15,2.8,16,5.2,13
2015/6/28 0:09,2.7,15,2.9,15,3.3,12
2015/6/28 0:10,2.7,14,2.7,15,3.1,9
2015/6/28 0:11,2.8,13,2.8,15,2.6,9
2015/6/28 0:12,2.7,13,2.8,15,3.6,9
2015/6/28 0:13,2.8,12,2.8,15,4.5,9
2015/6/28 0:14,2.8,12,2.9,15,3.7,10
2015/6/28 0:15,2.5,11,2.8,15,2.6,9
2015/6/28 0:16,2.2,11,2.5,15,2.5,12
2015/6/28 0:17,2,11,2.2,15,2.7,16
2015/6/28 0:18,1.7,11,2,15,2.6,16
2015/6/28 0:19,1.6,11,1.7,12,1.3,1
2015/6/28 0:20,1.4,10,1.6,12,0.6,6
2015/6/28 0:21,1.4,10,1.4,12,1.3,5
2015/6/28 0:22,1.3,8,1.4,12,1.9,9
2015/6/28 0:23,1.2,7,1.3,12,2,8
2015/6/28 0:24,1,7,1.1,11,1.1,10
2015/6/28 0:25,0.9,8,1,11,0.9,9
2015/6/28 0:26,0.9,8,0.9,11,1,11
2015/6/28 0:27,0.7,8,0.8,11,0.8,12
2015/6/28 0:28,0.7,9,0.7,11,1.5,8
2015/6/28 0:29,0.7,9,0.7,11,1,2
2015/6/28 0:30,0.8,9,0.8,10,2.2,3
2015/6/28 0:31,1,10,1,10,9,2
2015/6/28 0:32,1.3,10,1.3,8,7.4,1
2015/6/28 0:33,1.3,12,1.3,10,3.7,16
2015/6/28 0:34,1.5,14,1.5,13,3.9,15
2015/6/28 0:35,1.7,15,1.7,15,4.4,15
2015/6/28 0:36,1.9,16,1.9,15,3.9,16
2015/6/28 0:37,2,16,2,16,3.6,16
2015/6/28 0:38,2.3,16,2.3,16,6.4,16
2015/6/28 0:39,2.6,16,2.6,16,5.6,14
2015/6/28 0:40,2.8,15,2.8,16,5.4,14
2015/6/28 0:41,2.6,15,2.8,16,3.3,15
2015/6/28 0:42,2.4,15,2.6,16,3.5,15
2015/6/28 0:43,2.4,14,2.5,16,4.1,14
2015/6/28 0:44,2.4,15,2.5,16,3,14
2015/6/28 0:45,2.3,14,2.4,16,2.2,9
2015/6/28 0:46,2.2,15,2.2,16,2.9,6
2015/6/28 0:47,2.3,15,2.3,16,4.8,16
2015/6/28 0:48,2.1,15,2.3,16,3.7,16
2015/6/28 0:49,2.1,15,2.2,16,4.7,15
2015/6/28 0:50,2.1,15,2.1,15,4.8,15
2015/6/28 0:51,2.1,15,2.1,15,3.3,15
2015/6/28 0:52,2,15,2.1,14,1.8,15
2015/6/28 0:53,2,16,2,14,3.3,15
2015/6/28 0:54,2,16,2,15,4.1,1
2015/6/28 0:55,2.2,16,2.2,15,5.8,16
2015/6/28 0:56,2.4,16,2.4,16,6.3,16
2015/6/28 0:57,2.4,16,2.4,16,5.1,15
2015/6/28 0:58,2.5,16,2.5,16,5,14
2015/6/28 0:59,2.5,16,2.5,16,5.5,16
2015/6/28 1:00,2.6,16,2.6,16,6.3,15
2015/6/28 1:01,2.8,15,2.8,16,6.1,12
2015/6/28 1:02,3,15,3.1,15,4.7,10
2015/6/28 1:03,3.1,15,3.1,15,6.1,16
2015/6/28 1:04,3.3,15,3.3,15,5.4,16
2015/6/28 1:05,3.3,15,3.4,15,4.9,16
2015/6/28 1:06,3.2,14,3.3,15,3.2,14
2015/6/28 1:07,3.1,15,3.2,15,4.5,16
2015/6/28 1:08,3.1,15,3.1,15,5.8,1
2015/6/28 1:09,3.1,15,3.2,15,7.8,16
2015/6/28 1:10,3.2,15,3.2,15,8.1,16
2015/6/28 1:11,3.2,15,3.2,15,6.3,16
2015/6/28 1:12,3.3,16,3.3,15,6.7,16
2015/6/28 1:13,3.4,16,3.5,16,7.2,15
2015/6/28 1:14,3.5,16,3.5,16,6,1
2015/6/28 1:15,3.5,16,3.5,16,5.1,16
2015/6/28 1:16,3.6,16,3.6,16,7.6,16
2015/6/28 1:17,3.8,16,3.8,16,8.1,16
2015/6/28 1:18,4,16,4.1,16,9.1,16
2015/6/28 1:19,4.3,16,4.3,16,11.7,16
2015/6/28 1:20,4.5,16,4.5,16,10,15
2015/6/28 1:21,4.5,16,4.6,16,6.3,16
2015/6/28 1:22,4.5,16,4.5,16,6.2,16
2015/6/28 1:23,4.6,16,4.6,16,6.8,16
2015/6/28 1:24,4.5,16,4.6,16,7.4,2
2015/6/28 1:25,4.4,16,4.5,16,4.8,15
2015/6/28 1:26,4.5,16,4.5,16,8.3,2
2015/6/28 1:27,4.4,16,4.6,16,7.4,1
2015/6/28 1:28,4.3,16,4.4,16,4.8,16
2015/6/28 1:29,4,16,4.3,16,4.9,1
2015/6/28 1:30,3.5,1,3.9,16,4.7,1
2015/6/28 1:31,3.5,16,3.6,16,8.5,16
2015/6/28 1:32,3.7,1,3.7,16,10,2
2015/6/28 1:33,3.6,16,3.7,16,5.6,15
2015/6/28 1:34,3.5,16,3.6,16,3.9,14
2015/6/28 1:35,3.5,16,3.6,16,3.1,14
2015/6/28 1:36,3.3,16,3.5,16,5.1,2
2015/6/28 1:37,3.2,16,3.3,16,7.6,16
2015/6/28 1:38,3.2,16,3.3,16,8.1,15
2015/6/28 1:39,3.3,15,3.3,16,7,15
2015/6/28 1:40,3.5,15,3.5,16,6.7,16
2015/6/28 1:41,3.5,15,3.5,16,6.3,15
2015/6/28 1:42,3.5,15,3.6,1,6.8,16
2015/6/28 1:43,3.6,15,3.6,16,8.5,2
2015/6/28 1:44,3.7,15,3.7,15,7,15
2015/6/28 1:45,3.8,15,3.8,15,5.4,14
2015/6/28 1:46,4.1,15,4.1,15,6.5,15
2015/6/28 1:47,4.1,15,4.1,15,6.3,1
2015/6/28 1:48,4.6,16,4.6,15,11.5,16
2015/6/28 1:49,4.8,16,4.8,16,8.7,15
2015/6/28 1:50,4.7,15,4.9,16,8.9,15
2015/6/28 1:51,4.4,16,4.6,16,3.7,5
2015/6/28 1:52,4,16,4.3,16,1.5,10
2015/6/28 1:53,3.6,16,3.9,16,3.2,2
2015/6/28 1:54,3.4,16,3.6,16,3.5,2
2015/6/28 1:55,3.5,1,3.5,16,7.9,16
2015/6/28 1:56,3.3,1,3.5,16,8.5,1
2015/6/28 1:57,3.2,1,3.3,16,5.5,2
2015/6/28 1:58,2.6,1,3.2,16,5.4,1
2015/6/28 1:59,2.4,1,2.5,16,6.5,15
2015/6/28 2:00,2.5,1,2.5,15,8.2,15
2015/6/28 2:01,2.6,1,2.6,16,7.4,15
2015/6/28 2:02,3,1,3,16,8.2,15
2015/6/28 2:03,3.2,1,3.2,16,7,2
2015/6/28 2:04,3.1,16,3.2,1,3.2,1
2015/6/28 2:05,2.8,1,3.1,1,3,3
2015/6/28 2:06,2.8,1,2.8,1,3.3,2
2015/6/28 2:07,3.1,16,3.1,1,9.4,16
2015/6/28 2:08,3.4,16,3.4,16,7.8,1
2015/6/28 2:09,3.5,16,3.5,16,6.5,1
2015/6/28 2:10,3.5,1,3.6,1,7.2,2
2015/6/28 2:11,3.7,1,3.7,1,9.2,1
2015/6/28 2:12,3.7,1,3.7,1,6.1,16
2015/6/28 2:13,3.6,1,3.7,1,5.1,16
2015/6/28 2:14,4,1,4,1,8.4,15
2015/6/28 2:15,4.1,1,4.2,1,6.3,3
2015/6/28 2:16,4.3,1,4.3,1,6.1,15
2015/6/28 2:17,4.2,1,4.3,1,7.7,16
2015/6/28 2:18,4.2,1,4.2,1,8.5,16
2015/6/28 2:19,4.1,1,4.2,1,5.7,1
2015/6/28 2:20,4,1,4.1,1,5.1,16
2015/6/28 2:21,3.8,16,4,1,6.7,16
2015/6/28 2:22,3.6,16,3.8,1,3.9,16
2015/6/28 2:23,3.6,16,3.7,1,3.9,1
2015/6/28 2:24,3.5,16,3.6,1,5,2
2015/6/28 2:25,3.3,16,3.4,1,2.1,16
2015/6/28 2:26,3.1,1,3.3,1,3.8,3
2015/6/28 2:27,3,1,3.1,1,8.1,16
2015/6/28 2:28,2.8,16,3,1,7.1,14
2015/6/28 2:29,3.2,16,3.2,1,9.8,15
2015/6/28 2:30,3.1,16,3.2,1,6.1,16
2015/6/28 2:31,3,16,3.1,16,4.8,9
2015/6/28 2:32,2.9,1,3,16,1.5,16
2015/6/28 2:33,2.8,1,2.9,16,2.9,2
2015/6/28 2:34,2.8,16,2.8,16,4.8,16
2015/6/28 2:35,3.2,16,3.2,16,9.9,13
2015/6/28 2:36,3.5,15,3.5,16,6.8,13
2015/6/28 2:37,3.5,15,3.6,15,4.4,15
2015/6/28 2:38,3.4,16,3.5,15,4.5,1
2015/6/28 2:39,3.1,16,3.3,15,5.8,15
2015/6/28 2:40,3,16,3,15,4.3,15
2015/6/28 2:41,3,16,3,15,5.8,1
2015/6/28 2:42,3.2,16,3.2,15,5.5,1
2015/6/28 2:43,3.4,15,3.4,15,8.7,16
2015/6/28 2:44,3.7,15,3.7,15,7.1,15
2015/6/28 2:45,3.2,15,3.6,15,3.1,16
2015/6/28 2:46,2.9,16,3.2,15,3.8,14
2015/6/28 2:47,3,16,3,15,6.3,14
2015/6/28 2:48,3.1,16,3.1,15,7.2,14
2015/6/28 2:49,3.1,16,3.2,15,6.3,1
2015/6/28 2:50,3.1,16,3.1,15,2.7,13
2015/6/28 2:51,3,16,3.1,15,3.2,1
2015/6/28 2:52,3,16,3,15,4.4,1
2015/6/28 2:53,2.8,16,3,15,3.9,16
2015/6/28 2:54,2.7,16,2.8,15,7,14
2015/6/28 2:55,2.9,16,2.9,15,6.1,1
2015/6/28 2:56,3.1,16,3.1,16,6.4,15
2015/6/28 2:57,2.9,16,3.1,16,3.3,15
2015/6/28 2:58,2.9,16,2.9,16,6.9,16
2015/6/28 2:59,2.9,16,2.9,16,6.9,16
2015/6/28 3:00,3,16,3,16,5.1,1
2015/6/28 3:01,3.1,16,3.1,16,5.8,15
2015/6/28 3:02,3.2,16,3.3,16,7.5,15
2015/6/28 3:03,3.6,16,3.6,16,8.1,16
2015/6/28 3:04,3.6,16,3.6,16,6.1,1
2015/6/28 3:05,3.6,16,3.6,16,5.1,15
2015/6/28 3:06,3.7,16,3.7,16,8.1,15
2015/6/28 3:07,4.2,16,4.2,16,11.8,16
2015/6/28 3:08,4.4,16,4.4,16,8.2,16
2015/6/28 3:09,4.4,16,4.5,16,6.9,1
2015/6/28 3:10,4.6,16,4.6,16,8.1,1
2015/6/28 3:11,4.9,16,4.9,16,9,16
2015/6/28 3:12,5.1,16,5.1,16,9.5,15
2015/6/28 3:13,5.1,16,5.1,16,7.4,15
2015/6/28 3:14,5,16,5.1,16,5.2,16
2015/6/28 3:15,5,16,5,16,4.4,2
2015/6/28 3:16,4.8,16,5,16,5.1,1
2015/6/28 3:17,4.4,16,4.8,16,4.5,16
2015/6/28 3:18,4.1,16,4.4,16,4.9,15
2015/6/28 3:19,4,16,4.1,16,4.8,15
2015/6/28 3:20,4,16,4.1,16,5.8,16
2015/6/28 3:21,3.9,16,4.1,16,8.6,16
2015/6/28 3:22,3.6,16,3.9,16,6,1
2015/6/28 3:23,3.6,16,3.7,16,8.2,16
2015/6/28 3:24,3.7,16,3.7,16,8.3,1
2015/6/28 3:25,3.8,16,3.8,16,6.5,16
2015/6/28 3:26,4,16,4,16,8.4,16
2015/6/28 3:27,4.2,16,4.2,16,7,16
2015/6/28 3:28,4.5,16,4.5,16,9.7,16
2015/6/28 3:29,4.7,16,4.7,16,7.8,16
2015/6/28 3:30,4.7,16,4.8,16,6.3,15
2015/6/28 3:31,4.9,16,4.9,16,9.5,15
2015/6/28 3:32,4.9,16,4.9,16,6.9,16
2015/6/28 3:33,4.8,16,4.9,16,6.9,16
2015/6/28 3:34,5,16,5,16,8.9,16
2015/6/28 3:35,5,16,5,16,6.7,16
2015/6/28 3:36,5.1,16,5.1,16,11,16
2015/6/28 3:37,5.1,16,5.1,16,7.8,16
2015/6/28 3:38,5.1,16,5.2,16,8.4,15
2015/6/28 3:39,4.8,16,5.1,16,4.2,15
2015/6/28 3:40,4.8,16,4.8,16,5.2,16
2015/6/28 3:41,4.5,16,4.7,16,5.5,1
2015/6/28 3:42,4.3,16,4.4,16,3.5,15
2015/6/28 3:43,4.4,16,4.4,16,9,16
2015/6/28 3:44,4,16,4.4,16,4.2,1
2015/6/28 3:45,4,16,4.1,16,5.1,16
2015/6/28 3:46,3.6,16,3.9,16,6.1,16
2015/6/28 3:47,3.5,16,3.6,16,7.5,1
2015/6/28 3:48,3.5,16,3.5,16,8.7,15
2015/6/28 3:49,3.5,16,3.6,16,5.8,15
2015/6/28 3:50,3.6,16,3.6,16,7,16
2015/6/28 3:51,3.5,16,3.6,16,5.4,2
2015/6/28 3:52,3.7,16,3.7,16,6.1,16
2015/6/28 3:53,3.4,16,3.6,16,5.2,16
2015/6/28 3:54,3.6,16,3.6,16,5.6,13
2015/6/28 3:55,3.5,16,3.6,16,5.2,14
2015/6/28 3:56,3.5,16,3.5,16,4.7,14
2015/6/28 3:57,3.3,15,3.4,16,3.5,16
2015/6/28 3:58,3,16,3.2,16,5.2,16
2015/6/28 3:59,3.2,15,3.2,16,7.6,15
2015/6/28 4:00,3.2,15,3.2,16,11.6,15
2015/6/28 4:01,3.4,15,3.4,16,6.3,16
2015/6/28 4:02,3.4,15,3.4,16,5.4,16
2015/6/28 4:03,3.5,16,3.5,16,6.5,15
2015/6/28 4:04,3.6,16,3.6,16,9.3,15
2015/6/28 4:05,3.9,16,3.9,16,8.7,14
2015/6/28 4:06,4,16,4,16,6.3,14
2015/6/28 4:07,4.4,16,4.4,16,8.5,15
2015/6/28 4:08,4.5,15,4.5,15,6.8,15
2015/6/28 4:09,4.3,16,4.5,15,5.2,16
2015/6/28 4:10,4.2,16,4.4,15,6.8,16
2015/6/28 4:11,4,16,4.2,15,4.7,15
2015/6/28 4:12,3.9,16,4,15,3.2,16
2015/6/28 4:13,3.7,16,3.8,15,3,1
2015/6/28 4:14,3.3,16,3.7,15,5.8,2
2015/6/28 4:15,3.1,16,3.3,15,5.8,16
2015/6/28 4:16,3.3,16,3.3,15,8.9,15
2015/6/28 4:17,3.2,16,3.3,15,7.1,15
2015/6/28 4:18,3.4,16,3.4,15,8.1,16
2015/6/28 4:19,3.4,16,3.4,16,4.9,14
2015/6/28 4:20,3.2,15,3.4,16,3.3,9
2015/6/28 4:21,3.1,15,3.2,16,3.2,16
2015/6/28 4:22,3.2,15,3.2,16,3.9,16
2015/6/28 4:23,3.4,15,3.4,16,6.2,15
2015/6/28 4:24,3.3,15,3.4,16,3.3,14
2015/6/28 4:25,3.2,15,3.3,16,4.5,16
2015/6/28 4:26,3,15,3.3,16,7,16
2015/6/28 4:27,2.8,15,3,16,4.7,16
2015/6/28 4:28,2.7,15,2.8,16,5.7,16
2015/6/28 4:29,2.5,16,2.6,16,2.9,16
2015/6/28 4:30,2.6,16,2.6,15,4.9,16
2015/6/28 4:31,2.8,16,2.8,15,4.5,16
2015/6/28 4:32,2.9,16,2.9,15,4.5,15
2015/6/28 4:33,2.8,16,2.8,15,4.7,14
2015/6/28 4:34,3,16,3,15,6.5,15
2015/6/28 4:35,3.1,16,3.1,15,5.8,16
2015/6/28 4:36,2.9,16,3,16,5.8,14
2015/6/28 4:37,2.9,16,2.9,16,4.2,16
2015/6/28 4:38,2.7,15,2.9,16,2.1,1
2015/6/28 4:39,2.6,15,2.6,16,1.8,13
2015/6/28 4:40,2.3,16,2.5,16,1.4,3
2015/6/28 4:41,2.1,16,2.3,16,1.1,3
2015/6/28 4:42,1.9,15,2,16,1.8,9
2015/6/28 4:43,1.7,15,1.9,16,1.4,10
2015/6/28 4:44,1.4,14,1.7,16,1.8,6
2015/6/28 4:45,1.3,15,1.3,16,3.9,2
2015/6/28 4:46,1.3,15,1.3,16,4.1,2
2015/6/28 4:47,1.3,15,1.3,16,3.2,15
2015/6/28 4:48,1.3,16,1.3,15,3.7,16
2015/6/28 4:49,1.5,15,1.5,15,4.9,14
2015/6/28 4:50,1.7,15,1.7,16,3.8,16
2015/6/28 4:51,1.9,15,1.9,15,4.1,16
2015/6/28 4:52,2.1,15,2.1,15,6.1,15
2015/6/28 4:53,2.3,16,2.3,15,5.7,15
2015/6/28 4:54,2.4,16,2.4,16,3.1,14
2015/6/28 4:55,2.3,15,2.4,16,2.4,16
2015/6/28 4:56,2.2,15,2.3,16,2.2,12
2015/6/28 4:57,2.1,15,2.2,16,2.5,2
2015/6/28 4:58,2,15,2.1,16,2.2,1
2015/6/28 4:59,1.8,15,2,16,1.8,4
2015/6/28 5:00,1.7,15,1.8,16,1.6,15
2015/6/28 5:01,1.6,15,1.7,16,3.5,2
2015/6/28 5:02,1.4,15,1.6,16,1.6,10
2015/6/28 5:03,1.4,15,1.4,16,4.3,16
2015/6/28 5:04,1.5,15,1.5,16,4.2,15
2015/6/28 5:05,1.7,15,1.7,15,6.1,14
2015/6/28 5:06,1.9,15,1.9,15,7.2,15
2015/6/28 5:07,2.1,15,2.1,15,3.7,12
2015/6/28 5:08,2.3,14,2.3,14,4.7,11
2015/6/28 5:09,2.4,14,2.4,14,3.9,10
2015/6/28 5:10,2.6,14,2.6,14,3.6,10
2015/6/28 5:11,2.5,13,2.6,14,2.9,10
2015/6/28 5:12,2.6,13,2.6,14,2.5,8
2015/6/28 5:13,2.4,13,2.6,14,2.2,7
2015/6/28 5:14,2.3,12,2.4,14,3.2,3
2015/6/28 5:15,2.2,13,2.3,14,2.7,1
2015/6/28 5:16,1.9,13,2.1,14,3.3,1
2015/6/28 5:17,1.9,14,2,14,3.7,2
2015/6/28 5:18,1.8,15,1.9,14,2.6,15
2015/6/28 5:19,1.7,15,1.7,14,2.1,15
2015/6/28 5:20,1.5,15,1.7,14,1.6,14
2015/6/28 5:21,1.5,15,1.6,13,1.9,12
2015/6/28 5:22,1.5,16,1.5,13,2,1
2015/6/28 5:23,1.5,16,1.5,12,2.1,16
2015/6/28 5:24,1.5,15,1.5,12,3.9,15
2015/6/28 5:25,1.6,15,1.6,13,3.9,14
2015/6/28 5:26,1.8,15,1.8,13,3.7,15
2015/6/28 5:27,1.9,15,1.9,14,3.9,14
2015/6/28 5:28,1.8,14,1.9,15,2.2,13
2015/6/28 5:29,1.8,14,1.9,15,3,12
2015/6/28 5:30,1.9,14,1.9,15,2.5,13
2015/6/28 5:31,1.9,14,1.9,15,1.8,13
2015/6/28 5:32,1.9,14,1.9,15,2.1,16
2015/6/28 5:33,1.9,14,1.9,15,2.6,16
2015/6/28 5:34,1.9,14,1.9,15,3,16
2015/6/28 5:35,1.8,14,1.9,15,2.9,13
2015/6/28 5:36,1.7,14,1.8,15,3,13
2015/6/28 5:37,1.6,13,1.7,14,2.4,12
2015/6/28 5:38,1.5,13,1.6,14,1,15
2015/6/28 5:39,1.4,14,1.4,14,2.4,1
2015/6/28 5:40,1.4,14,1.4,14,2.5,1
2015/6/28 5:41,1.5,15,1.5,14,2.6,16
2015/6/28 5:42,1.5,14,1.5,14,2.4,12
2015/6/28 5:43,1.6,14,1.6,14,2.6,12
2015/6/28 5:44,1.6,13,1.6,14,2.5,11
2015/6/28 5:45,1.6,13,1.6,14,2.6,11
2015/6/28 5:46,1.4,13,1.6,13,2.5,10
2015/6/28 5:47,1.3,12,1.4,13,0.8,8
2015/6/28 5:48,1.3,12,1.3,14,1.1,8
2015/6/28 5:49,1.3,11,1.4,14,1.1,7
2015/6/28 5:50,1.2,10,1.3,14,0.8,4
2015/6/28 5:51,1.2,9,1.2,14,2.1,6
2015/6/28 5:52,1.1,9,1.2,14,1.8,16
2015/6/28 5:53,1,8,1.1,14,1.8,7
2015/6/28 5:54,0.8,7,0.9,13,1,15
2015/6/28 5:55,0.7,5,0.8,13,0.6,3
2015/6/28 5:56,0.6,4,0.6,13,1.3,9
2015/6/28 5:57,0.7,4,0.7,11,2.2,8
2015/6/28 5:58,0.8,4,0.8,11,2,8
2015/6/28 5:59,0.9,5,0.9,11,2.4,9
2015/6/28 6:00,0.9,5,0.9,10,1.8,11
2015/6/28 6:01,0.8,9,0.9,9,1.1,13
2015/6/28 6:02,0.8,8,0.8,9,1.6,8
2015/6/28 6:03,1,8,1,8,4.2,8
2015/6/28 6:04,1.2,8,1.2,8,4.7,7
2015/6/28 6:05,1.3,9,1.3,9,3.5,8
2015/6/28 6:06,1.4,9,1.4,9,2.5,15
2015/6/28 6:07,1.4,9,1.4,9,1.6,16
2015/6/28 6:08,1.3,9,1.3,9,0.5,12
2015/6/28 6:09,1.1,9,1.2,9,0.6,9
2015/6/28 6:10,1.1,9,1.1,9,0.6,9
2015/6/28 6:11,1,9,1,9,0.6,11
2015/6/28 6:12,1,9,1,9,0.8,10
2015/6/28 6:13,0.8,10,1,9,0.8,9
2015/6/28 6:14,0.7,11,0.8,9,2.1,15
2015/6/28 6:15,0.7,12,0.7,9,3.7,15
2015/6/28 6:16,0.9,12,0.9,9,3.8,15
2015/6/28 6:17,1,12,1,9,2.7,13
2015/6/28 6:18,1.1,12,1.1,9,2.1,14
2015/6/28 6:19,1.1,13,1.1,9,1.5,12
2015/6/28 6:20,1.3,12,1.3,12,2.1,9
2015/6/28 6:21,1.5,12,1.5,12,2.7,8
2015/6/28 6:22,1.5,12,1.5,12,2.4,8
2015/6/28 6:23,1.6,12,1.6,12,2,9
2015/6/28 6:24,1.7,11,1.7,12,2.5,10
2015/6/28 6:25,1.5,11,1.7,12,1.1,10
2015/6/28 6:26,1.4,10,1.5,12,2.9,3
2015/6/28 6:27,1.4,10,1.4,12,5.4,5
2015/6/28 6:28,1.3,9,1.4,12,1.6,14
2015/6/28 6:29,1.3,9,1.3,12,1,16
2015/6/28 6:30,1.2,9,1.3,12,1.8,14
2015/6/28 6:31,1.1,11,1.2,12,1.6,12
2015/6/28 6:32,1.2,13,1.2,12,2.6,14
2015/6/28 6:33,1.2,14,1.2,12,2.4,15
2015/6/28 6:34,1.2,15,1.2,11,1.9,15
2015/6/28 6:35,1.3,14,1.3,11,2.6,12
2015/6/28 6:36,1.5,14,1.5,14,4.3,15
2015/6/28 6:37,1.4,14,1.5,14,2.5,13
2015/6/28 6:38,1.7,14,1.7,14,6.3,15
2015/6/28 6:39,1.8,14,1.8,14,3.5,14
2015/6/28 6:40,2.1,14,2.1,14,8.1,16
2015/6/28 6:41,2.4,14,2.4,14,7,16
2015/6/28 6:42,2.7,14,2.7,14,6.2,15
2015/6/28 6:43,2.9,14,2.9,14,6.7,16
2015/6/28 6:44,2.9,15,2.9,14,3.2,16
2015/6/28 6:45,3,15,3,15,4.3,15
2015/6/28 6:46,3,15,3,15,4.2,1
2015/6/28 6:47,3.2,16,3.2,16,5.5,2
2015/6/28 6:48,3,16,3.2,16,3.9,15
2015/6/28 6:49,3,16,3,16,2.5,16
2015/6/28 6:50,2.9,16,3.1,16,3.5,15
2015/6/28 6:51,2.8,16,2.8,16,6.1,15
2015/6/28 6:52,2.7,16,2.8,16,5.1,15
2015/6/28 6:53,2.5,16,2.7,16,4.3,15
2015/6/28 6:54,2.6,15,2.6,16,4.7,15
2015/6/28 6:55,2.7,15,2.7,16,6.1,15
2015/6/28 6:56,2.8,15,2.8,16,4.9,16
2015/6/28 6:57,2.8,15,2.8,16,6.5,16
2015/6/28 6:58,2.8,15,2.8,16,4.7,15
2015/6/28 6:59,3.1,15,3.1,16,7.8,16
2015/6/28 7:00,3.3,15,3.3,15,7,15
2015/6/28 7:01,3.4,16,3.4,15,7.2,16
2015/6/28 7:02,3.3,16,3.4,15,4.9,14
2015/6/28 7:03,3.5,16,3.5,16,7.6,15
2015/6/28 7:04,3.8,16,3.8,16,8.3,16
2015/6/28 7:05,3.6,16,3.8,16,4.4,1
2015/6/28 7:06,3.4,16,3.6,16,3.1,15
2015/6/28 7:07,3.3,16,3.4,16,3.9,14
2015/6/28 7:08,3.4,16,3.4,16,6.8,15
2015/6/28 7:09,3.5,16,3.5,16,8.6,16
2015/6/28 7:10,3.5,16,3.6,16,6.5,16
2015/6/28 7:11,3.4,16,3.5,16,7.4,16
2015/6/28 7:12,3.3,16,3.4,16,3.9,16
2015/6/28 7:13,3.2,16,3.3,16,5,15
2015/6/28 7:14,3.1,16,3.3,16,5.7,16
2015/6/28 7:15,3.2,15,3.2,16,5.1,1
2015/6/28 7:16,3.5,16,3.5,16,6.8,16
2015/6/28 7:17,3.4,16,3.5,16,4.8,1
2015/6/28 7:18,3.4,16,3.4,16,5,16
2015/6/28 7:19,3.1,16,3.4,16,3.6,14
2015/6/28 7:20,2.8,16,3,16,2.5,16
2015/6/28 7:21,2.6,15,2.9,16,3.5,15
2015/6/28 7:22,2.5,15,2.6,16,3,14
2015/6/28 7:23,2.7,15,2.7,16,5.8,12
2015/6/28 7:24,2.6,15,2.7,16,3.5,14
2015/6/28 7:25,2.5,15,2.5,16,4.3,16
2015/6/28 7:26,2.3,15,2.5,16,3.8,13
2015/6/28 7:27,2.5,14,2.5,16,4.7,14
2015/6/28 7:28,2.6,14,2.6,16,6.9,13
2015/6/28 7:29,2.7,14,2.7,16,5.2,13
2015/6/28 7:30,2.8,13,2.8,16,3.7,13
2015/6/28 7:31,2.8,13,2.8,14,3.8,16
2015/6/28 7:32,2.8,14,2.8,14,2.5,15
2015/6/28 7:33,2.8,14,2.8,14,7.7,15
2015/6/28 7:34,3,14,3,14,6.9,16
2015/6/28 7:35,3.1,14,3.1,14,6.2,15
2015/6/28 7:36,3.3,14,3.3,14,6.7,15
2015/6/28 7:37,3.6,14,3.6,14,6.4,15
2015/6/28 7:38,3.6,15,3.7,14,7.2,16
2015/6/28 7:39,3.5,15,3.6,14,6.9,15
2015/6/28 7:40,3.7,15,3.7,14,6.1,1
2015/6/28 7:41,3.8,15,3.8,15,6.9,16
2015/6/28 7:42,3.9,15,3.9,15,7.7,16
2015/6/28 7:43,4,15,4.1,15,10.6,16
2015/6/28 7:44,3.8,15,4,15,5.1,14
2015/6/28 7:45,3.9,16,3.9,15,5.8,15
2015/6/28 7:46,3.7,16,3.9,15,5.1,1
2015/6/28 7:47,3.5,16,3.7,15,5.5,15
2015/6/28 7:48,3.5,16,3.5,15,9.7,15
2015/6/28 7:49,3.8,15,3.8,15,7.7,15
2015/6/28 7:50,3.8,15,3.8,15,6.3,12
2015/6/28 7:51,3.9,15,3.9,15,5.5,16
2015/6/28 7:52,4,15,4,15,4.7,14
2015/6/28 7:53,3.8,15,3.9,15,5.2,13
2015/6/28 7:54,3.7,14,3.8,15,3.1,14
2015/6/28 7:55,3.6,14,3.7,15,5.1,12
2015/6/28 7:56,3.8,14,3.8,15,7.1,12
2015/6/28 7:57,3.8,13,3.9,15,7.5,12
2015/6/28 7:58,3.5,13,3.8,15,3.2,6
2015/6/28 7:59,3.1,13,3.4,15,1.9,14
2015/6/28 8:00,3,13,3.1,15,5.8,13
2015/6/28 8:01,3,13,3,15,5.1,12
2015/6/28 8:02,2.9,13,3,15,3.7,13
2015/6/28 8:03,2.7,13,2.9,14,3.1,15
2015/6/28 8:04,2.7,13,2.7,14,2.1,10
2015/6/28 8:05,2.6,13,2.8,14,3,11
2015/6/28 8:06,2.3,14,2.6,14,3.1,15
2015/6/28 8:07,2.3,14,2.3,13,4.7,14
2015/6/28 8:08,2.4,14,2.4,13,4.4,1
2015/6/28 8:09,2.6,14,2.6,13,6.1,13
2015/6/28 8:10,2.6,14,2.6,13,5.6,13
2015/6/28 8:11,2.6,14,2.6,13,4.9,13
2015/6/28 8:12,2.7,13,2.7,13,5,12
2015/6/28 8:13,2.9,13,2.9,13,5.6,15
2015/6/28 8:14,3,13,3,13,4.3,15
2015/6/28 8:15,3.1,13,3.1,14,4.8,13
2015/6/28 8:16,3.1,13,3.1,14,3.9,12
2015/6/28 8:17,2.9,14,3.1,14,2.7,16
2015/6/28 8:18,2.8,14,2.9,14,2.2,14
2015/6/28 8:19,2.7,13,2.8,14,3.1,13
2015/6/28 8:20,2.7,14,2.7,14,7.1,13
2015/6/28 8:21,2.6,14,2.7,14,6.1,15
2015/6/28 8:22,2.6,14,2.7,14,7.5,16
2015/6/28 8:23,2.6,14,2.7,14,5.6,16
2015/6/28 8:24,2.8,14,2.8,14,4.8,14
2015/6/28 8:25,2.7,14,2.8,13,5.8,1
2015/6/28 8:26,2.8,15,2.8,13,4.8,15
2015/6/28 8:27,3.1,15,3.1,15,6.3,15
2015/6/28 8:28,3.3,15,3.3,15,6,15
2015/6/28 8:29,3.3,15,3.3,15,3.6,11
2015/6/28 8:30,3,15,3.3,15,3,12
2015/6/28 8:31,3,15,3,15,4.7,15
2015/6/28 8:32,2.9,15,3,15,6.9,16
2015/6/28 8:33,2.6,14,2.9,15,1.6,3
2015/6/28 8:34,2.5,14,2.6,15,4.1,14
2015/6/28 8:35,2.4,14,2.5,15,3.9,14
2015/6/28 8:36,2.4,14,2.4,15,3,12
2015/6/28 8:37,2,14,2.3,15,3.5,9
2015/6/28 8:38,1.9,13,2,15,6,15
2015/6/28 8:39,2,14,2,15,5.6,15
2015/6/28 8:40,2.2,14,2.2,15,5.8,14
2015/6/28 8:41,2.3,14,2.3,15,5.5,13
2015/6/28 8:42,2.5,14,2.5,14,10.6,15
2015/6/28 8:43,3.1,14,3.1,14,10.7,15
2015/6/28 8:44,3.4,14,3.4,14,7.6,15
2015/6/28 8:45,3.6,14,3.6,14,8.3,15
2015/6/28 8:46,4.1,15,4.1,15,10.8,15
2015/6/28 8:47,4.4,15,4.4,15,8.9,15
2015/6/28 8:48,4.5,15,4.5,15,6.7,15
2015/6/28 8:49,4.7,15,4.7,15,8.4,15
2015/6/28 8:50,4.9,15,4.9,15,9.7,15
2015/6/28 8:51,4.9,15,4.9,15,4.1,13
2015/6/28 8:52,4.5,15,4.8,15,7,13
2015/6/28 8:53,4.2,15,4.5,15,7,13
2015/6/28 8:54,4.2,15,4.2,15,8.7,14
2015/6/28 8:55,4.2,15,4.2,15,7,16
2015/6/28 8:56,3.8,15,4.1,15,4.9,15
2015/6/28 8:57,3.9,15,3.9,15,6.3,14
2015/6/28 8:58,4,15,4,15,7.7,15
2015/6/28 8:59,3.8,15,4,15,4.2,16
2015/6/28 9:00,3.5,15,3.8,15,3.8,15
2015/6/28 9:01,3.5,15,3.5,15,5.1,15
2015/6/28 9:02,3.5,15,3.6,15,3.3,15
2015/6/28 9:03,3.4,15,3.4,15,3.9,3
2015/6/28 9:04,3.1,16,3.4,15,3.9,3
2015/6/28 9:05,3.1,16,3.1,15,5.8,4
2015/6/28 9:06,2.9,1,3.1,15,2.6,5
2015/6/28 9:07,2.6,1,2.9,15,2.1,2
2015/6/28 9:08,2.2,1,2.5,15,2.7,12
2015/6/28 9:09,2,16,2.2,15,1.8,12
2015/6/28 9:10,1.9,16,2,15,1,16
2015/6/28 9:11,1.7,1,1.9,15,2.5,16
2015/6/28 9:12,1.8,1,1.8,15,3,1
2015/6/28 9:13,1.8,1,1.9,15,4.9,16
2015/6/28 9:14,1.7,1,1.8,16,1.9,2
2015/6/28 9:15,1.4,16,1.6,16,2.7,2
2015/6/28 9:16,1.5,15,1.5,1,3.9,13
2015/6/28 9:17,1.5,15,1.6,1,5.1,14
2015/6/28 9:18,1.6,16,1.6,1,4.9,3
2015/6/28 9:19,1.6,1,1.6,16,1.5,4
2015/6/28 9:20,1.6,1,1.6,16,1.5,13
2015/6/28 9:21,1.6,1,1.7,1,1.6,2
2015/6/28 9:22,1.5,2,1.6,1,2,4
2015/6/28 9:23,1.4,2,1.5,1,3.3,1
2015/6/28 9:24,1.6,2,1.6,1,4.8,1
2015/6/28 9:25,1.8,2,1.8,2,4.9,2
2015/6/28 9:26,1.9,2,2,2,5.6,1
2015/6/28 9:27,2.2,2,2.2,2,10,14
2015/6/28 9:28,2.4,1,2.4,1,6.5,16
2015/6/28 9:29,2.7,1,2.7,1,5.6,16
2015/6/28 9:30,2.9,1,2.9,1,4.9,16
2015/6/28 9:31,3,1,3,1,4.2,1
2015/6/28 9:32,3.2,16,3.2,16,5.8,16
2015/6/28 9:33,3.6,16,3.6,16,9,14
2015/6/28 9:34,3.8,16,3.8,16,7.5,16
2015/6/28 9:35,3.9,16,3.9,16,7,1
2015/6/28 9:36,4.2,16,4.2,16,8.6,15
2015/6/28 9:37,4,16,4.3,16,6.9,1
2015/6/28 9:38,4,16,4,16,6.3,2
2015/6/28 9:39,3.9,16,4,16,5.1,1
2015/6/28 9:40,3.7,1,3.9,16,3,16
2015/6/28 9:41,3.6,16,3.7,16,2,3
2015/6/28 9:42,3.5,1,3.6,16,3.2,3
2015/6/28 9:43,3.1,1,3.5,16,3.1,14
2015/6/28 9:44,2.8,1,3.1,16,3.9,15
2015/6/28 9:45,2.5,1,2.8,16,3.3,16
2015/6/28 9:46,2.2,1,2.5,16,3.2,2
2015/6/28 9:47,2.1,1,2.2,16,3.7,1
2015/6/28 9:48,2.1,1,2.1,16,5.6,2
2015/6/28 9:49,2.1,1,2.1,16,4.9,15
2015/6/28 9:50,2.1,1,2.2,1,4.4,1
2015/6/28 9:51,2.1,1,2.1,16,2.7,1
2015/6/28 9:52,2.2,1,2.2,1,5.1,1
2015/6/28 9:53,2.4,1,2.4,1,6.1,16
2015/6/28 9:54,2.5,1,2.5,1,5.5,1
2015/6/28 9:55,2.6,1,2.6,1,4.2,16
2015/6/28 9:56,2.7,1,2.7,1,6.3,2
2015/6/28 9:57,2.7,1,2.7,1,6.2,2
2015/6/28 9:58,2.7,1,2.7,1,6.5,2
2015/6/28 9:59,2.6,1,2.7,1,3.9,2
2015/6/28 10:00,2.7,1,2.7,1,4.3,16
2015/6/28 10:01,2.8,1,2.8,1,4.9,15
2015/6/28 10:02,2.7,1,2.8,1,2.7,2
2015/6/28 10:03,2.6,1,2.7,1,5,2
2015/6/28 10:04,2.8,1,2.8,1,9.7,14
2015/6/28 10:05,3.2,1,3.2,1,9.4,15
2015/6/28 10:06,3.3,1,3.4,1,6.8,1
2015/6/28 10:07,3.3,1,3.4,1,5.1,1
2015/6/28 10:08,3.3,1,3.4,1,5.5,2
2015/6/28 10:09,3.5,1,3.5,1,6.8,1
2015/6/28 10:10,3.5,1,3.5,1,5.1,2
2015/6/28 10:11,3.6,1,3.6,1,6.1,3
2015/6/28 10:12,3.8,1,3.8,1,5.8,2
2015/6/28 10:13,3.8,1,3.8,1,6.4,1
2015/6/28 10:14,4,1,4,1,10.1,16
2015/6/28 10:15,3.8,1,4,1,7.7,1
2015/6/28 10:16,3.7,1,3.7,1,6.4,16
2015/6/28 10:17,3.7,1,3.7,1,5.4,2
2015/6/28 10:18,3.8,1,3.8,1,6.3,15
2015/6/28 10:19,3.5,1,3.8,1,3.9,16
2015/6/28 10:20,3.4,1,3.5,1,4.7,4
2015/6/28 10:21,3.4,1,3.5,1,4.3,3
2015/6/28 10:22,3.3,1,3.4,1,4.4,16
2015/6/28 10:23,3.5,1,3.5,1,6.8,1
2015/6/28 10:24,3.3,1,3.5,1,7,2
2015/6/28 10:25,3.5,1,3.5,1,8.7,16
2015/6/28 10:26,3.7,1,3.7,1,8.9,16
2015/6/28 10:27,3.7,1,3.7,1,7.1,16
2015/6/28 10:28,3.7,1,3.7,1,7.4,15
2015/6/28 10:29,4,1,4,1,7.5,16
2015/6/28 10:30,4.3,1,4.3,1,6.8,16
2015/6/28 10:31,4.6,16,4.6,16,8.5,15
2015/6/28 10:32,4.8,16,4.8,16,7.8,16
2015/6/28 10:33,4.7,16,4.8,16,5.8,16
2015/6/28 10:34,4.5,16,4.7,16,4.9,16
2015/6/28 10:35,4.3,16,4.5,16,5.1,15
2015/6/28 10:36,4.1,16,4.2,16,5.8,16
2015/6/28 10:37,4,16,4.1,16,4.2,15
2015/6/28 10:38,3.8,16,4,16,4.2,1
2015/6/28 10:39,3.7,16,3.8,16,4.9,1
2015/6/28 10:40,3.4,16,3.6,16,3.3,15
2015/6/28 10:41,3.4,16,3.5,16,7.1,15
2015/6/28 10:42,3.4,16,3.4,16,7.4,15
2015/6/28 10:43,3.3,16,3.4,16,6,15
2015/6/28 10:44,3.3,16,3.3,16,4.7,16
2015/6/28 10:45,3.3,16,3.3,16,7.2,16
2015/6/28 10:46,3.4,16,3.4,16,8.5,16
2015/6/28 10:47,3.8,16,3.8,16,8.5,16
2015/6/28 10:48,4,16,4,16,7.7,16
2015/6/28 10:49,4,15,4,16,6.5,15
2015/6/28 10:50,4.2,15,4.2,15,6.1,16
2015/6/28 10:51,4.2,15,4.2,15,6.4,15
2015/6/28 10:52,4,15,4.2,15,4.8,15
2015/6/28 10:53,3.8,15,4,15,4.1,2
2015/6/28 10:54,3.8,16,3.8,15,3.1,2
2015/6/28 10:55,3.6,16,3.8,15,3.9,3
2015/6/28 10:56,3.5,16,3.6,15,6.4,2
2015/6/28 10:57,3.3,1,3.4,15,5.4,1
2015/6/28 10:58,3.1,1,3.3,15,4.4,2
2015/6/28 10:59,3.2,1,3.2,15,7.2,3
2015/6/28 11:00,3.2,1,3.2,15,6.9,3
2015/6/28 11:01,3.1,2,3.2,15,5.8,2
2015/6/28 11:02,3,2,3.1,15,4.9,15
2015/6/28 11:03,3,2,3,15,2.4,15
2015/6/28 11:04,3,2,3,16,3.6,2